Other Surface Observations
Issued by NWS

Home | Current Version | Previous Version | Text Only | Print | Product List | Glossary On
Versions: 1 2 3 4 5 6 7 8 9 10 11 12 13 14 15 16 17 18 19 20 21 22 23 24 25 26 27 28 29 30 31 32 33 34 35 36 37 38 39 40 41 42 43 44 45 46 47 48 49 50
857
SXUS52 KTAE 140805
OSOTAE
OSOTAE
North Florida/South Alabama/Southwest Georgia Weather Roundup
National Weather Service Tallahassee Florida
300 AM EST SUN FEB 14 2016

Note: "fair" indicates few or no clouds below 12,000 feet with no
significant weather and/or obstructions to visibility.

!FLZ017-115-028-034-025-140900
...North Florida...

CITY           SKY/WX    TMP DP  RH WIND       PRES   REMARKS
TALLAHASSEE    CLEAR     41  20  43 NE3       30.32F
APALACHICOLA   PTCLDY    40  26  57 NE6       30.30F WCI  36
PERRY          CLEAR     35  27  72 CALM      30.33F
CROSS CITY       N/A     35  25  66 NE3       30.30F
JACKSONVILLE   CLEAR     37  30  75 CALM      30.30F
$$

!FLZ112-006-005-002-011-140900
...Florida Panhandle...

CITY           SKY/WX    TMP DP  RH WIND       PRES   REMARKS
MARIANNA       CLEAR     37  24  59 NE3       30.32F
BONIFAY        NOT AVBL
PANAMA CITY NW FAIR      38  25  59 NE6       30.29F WCI  33
TYNDALL AFB    CLEAR     43  22  42 NE6       30.31F WCI  39
TYND DRONE APT FAIR      41  24  51 MISG      30.31F
DE FUNIAK SPR  FAIR      38  17  42 NE6       30.30F WCI  33
EGLIN AFB      CLEAR     41  15  33 NE10      30.29F WCI  35
DESTIN         CLEAR     45  20  36 NE9       30.30F WCI  40
HURLBURT       CLEAR     40  14  34 NE6       30.28F WCI  36
CRESTVIEW      CLEAR     30  23  75 CALM      30.31F
PENSACOLA      CLEAR     43  19  38 NE8       30.28F WCI  38
$$

!ALZ063-066-140900
...South Alabama...

CITY           SKY/WX    TMP DP  RH WIND       PRES   REMARKS
DOTHAN         CLEAR     33  23  66 NE6       30.34F WCI  28
OZARK CAIRNS   CLEAR     33  19  57 NE6       30.30F WCI  27
FT RUCKER HELI CLEAR     30  22  72 NE3       30.30F
RUCKER HELI 3  FAIR      34  18  52 NE3       30.31F
RUCKER HELI 2  NOT AVBL
FLORALA APT    CLEAR     34  19  54 NE3       30.32F
ANDALUSIA      CLEAR     37  18  46 CALM      30.30F
TROY           CLEAR     32  21  64 CALM      30.32F
EUFALA         FAIR      30  23  75 CALM      30.32F
MOBILE         CLEAR     38  23  55 E6        30.28F WCI  33
$$

!GAZ120>161-140900
...Southwest and South Central Georgia...

CITY           SKY/WX    TMP DP  RH WIND       PRES   REMARKS
THOMASVILLE    FAIR      34  27  75 CALM      30.34F
BAINBRIDGE     CLEAR     36  25  64 NE3       30.33F
MOODY AFB      CLEAR     34  20  58 N6        30.31F WCI  28
VALDOSTA       CLEAR     34  23  64 N5        30.32F WCI  30
MOULTRIE       CLEAR     34  25  69 CALM      30.34S
BLAKELY        CLEAR     34  30  86 CALM      30.34F
ALBANY         CLEAR     33  19  56 NE3       30.36F
TIFTON         FAIR      35  18  51 CALM      30.33F
FITZGERALD     FAIR      35  15  44 CALM      30.36S
CORDELE        FAIR      33  22  63 CALM      30.37S
AMERICUS       FAIR      30  21  69 NE6       30.36F WCI  24
HOMERVILLE     FAIR      36  28  75 CALM      30.33S
$$

!GMZ750-755-770-775-140900
...Coastal and Buoy Obs...

STATION/POSITION TIME  TEMP    WIND        PRES    VSBY  WAVE
                       AIR SEA DIR/SP/G                  HT/PER
                 (UTC) (F)     (DEG/KT/KT) (MB)    (MI)  (FT/S)
KEATON BEACH     0800   39      30/  5/  6 1025.9F
CEDAR KEY        0700   45      40/  7/ 10 1026.6F
C TOWER          NOT AVBL
APALACHICOLA BUO 0750   57 66   60/ 17/ 21 1024.3F         4/ 5
PANAMA CITY BUOY 0650   59 68   60/ 16/ 19 1025.2          3/ 4
MOBILE BUOY      NOT AVBL
ORANGE BCH AL BU 0750   54 63   70/ 16/ 19 1024.5F         3/ 4
$$




USA.gov is the U.S. government's official web portal to all federal, state and local government web resources and services.